Theta_e
309 309 309 309 309 310 311 312 313 312 312 312 312 312 314 316 317 315 311 317 316 323 322 313 309 308 309 306 306 304 299 295 296 296 299 304 303 307 309 306 308 321 327 331 338
308 309 309 308 308 309 309 309 311 312 312 311 311 311 312 314 310 309 319 325 325 326 317 312 307 303 304 304 304 303 298 297 300 301 301 303 303 305 305 306 307 309 328 336 336
307 307 307 307 307 308 308 308 309 310 312 311 310 311 312 312 306 308 326 327 326 326 320 312 308 302 302 304 302 300 297 299 301 303 303 303 304 306 304 303 307 307 310 333 335
306 306 307 307 307 307 307 307 308 309 311 311 310 310 310 309 291 316 329 327 328 325 318 311 305 301 300 299 302 298 300 301 302 304 304 302 305 304 305 306 310 311 309 326 334
306 306 307 307 307 307 307 307 308 308 309 311 310 309 304 298 299 312 315 316 317 317 312 307 301 300 297 300 301 298 300 301 302 303 303 303 302 303 304 308 309 310 310 328 334
306 306 306 307 307 307 306 307 308 308 308 310 310 309 300 287 303 308 302 306 315 314 309 306 302 302 299 300 299 300 300 301 301 301 301 300 300 301 304 307 307 307 310 323 333
306 306 306 306 307 306 306 306 307 308 309 309 309 306 297 292 302 302 302 301 306 311 311 313 309 305 303 299 303 301 297 299 300 300 300 301 298 298 304 306 307 308 310 309 329
306 306 306 306 306 306 306 305 306 308 308 308 309 303 291 301 303 301 301 299 304 306 307 311 313 309 306 304 301 299 298 291 297 298 300 300 293 300 304 305 305 307 309 309 311
305 305 306 306 305 305 305 305 306 307 308 308 302 298 288 302 297 300 303 296 302 305 308 311 311 306 302 299 294 297 289 292 293 299 298 298 295 300 303 304 305 306 307 308 310
305 305 305 305 305 305 305 305 306 306 304 304 302 291 293 290 295 297 301 301 298 301 301 305 305 301 298 296 286 289 290 292 293 298 299 296 296 300 302 303 304 306 307 308 308
305 304 305 305 304 304 303 299 293 291 296 290 290 290 291 295 298 295 298 298 298 298 291 299 295 293 296 297 296 294 292 292 295 300 298 297 297 299 302 303 304 306 306 307 308
305 304 304 305 304 302 300 294 294 295 286 294 293 293 296 297 290 294 298 296 295 287 294 295 292 299 300 298 295 294 291 291 295 299 297 296 296 298 300 301 303 305 306 307 308
304 304 304 304 302 298 294 295 300 299 287 289 294 293 295 297 291 292 296 295 293 290 289 289 294 299 298 295 293 293 292 292 292 296 298 295 294 297 300 301 302 304 306 307 308
304 304 305 303 296 296 294 299 300 300 280 283 288 292 293 295 290 296 297 292 292 290 289 289 293 294 296 294 295 290 295 294 293 292 287 294 286 294 298 298 298 301 304 304 306
304 304 304 301 295 293 296 300 302 296 270 285 287 298 293 288 290 290 296 292 286 291 291 286 290 288 289 295 297 293 296 294 294 291 290 291 288 293 298 295 298 301 302 303 304
304 303 303 298 295 297 300 299 297 276 268 281 287 286 286 288 287 291 292 294 292 287 288 291 296 294 290 294 298 297 294 292 292 290 282 288 288 289 293 296 298 301 302 303 303
303 303 299 299 293 298 297 292 276 270 281 279 281 285 284 283 284 286 285 283 282 280 280 284 286 292 295 292 297 295 291 283 281 280 281 290 287 289 295 297 298 299 301 303 305
303 297 295 297 296 296 292 283 269 275 278 284 283 283 280 282 283 283 282 281 284 283 283 281 279 288 295 294 291 293 292 284 277 279 283 290 284 290 298 300 301 302 303 304 304
298 292 293 296 296 293 285 273 272 277 282 280 282 278 279 281 281 281 281 280 283 284 279 278 281 288 291 289 295 292 288 295 287 288 283 286 291 296 298 299 300 300 302 302 304
290 289 290 295 295 289 280 275 276 282 284 282 276 279 276 278 278 279 280 283 282 285 287 281 277 284 286 290 293 293 296 286 287 278 277 283 286 288 293 295 297 297 297 298 301
288 285 292 293 293 285 276 275 281 286 285 281 279 278 278 278 279 278 279 283 286 285 287 283 279 280 285 285 283 287 289 290 289 287 281 280 285 295 295 297 293 293 294 296 298
286 277 291 293 282 275 277 280 285 284 286 284 283 281 279 280 278 279 279 282 288 287 282 284 280 276 278 285 286 286 282 282 281 282 282 282 286 293 291 291 292 292 294 296 298
283 282 290 290 276 275 278 279 282 282 283 283 282 283 283 280 276 279 281 286 288 286 283 284 277 273 276 283 285 282 282 283 282 282 278 278 284 293 293 292 293 292 293 295 297
281 276 281 283 281 280 278 277 277 284 283 284 283 284 282 280 282 278 280 284 287 286 289 288 280 277 273 276 280 278 280 282 280 276 277 278 280 285 289 289 290 292 293 294 296
280 277 280 276 278 281 282 280 278 279 284 284 282 282 281 275 277 278 281 283 285 287 287 285 277 280 280 281 281 280 280 281 279 280 276 280 280 285 287 288 290 292 293 293 293
280 279 283 282 282 281 279 277 279 281 282 280 280 282 282 279 280 277 281 281 281 285 284 284 277 279 277 281 281 278 280 281 281 281 281 281 281 289 291 291 291 291 291 291 292
286 286 284 280 280 279 279 280 280 282 283 284 283 282 280 282 285 286 286 286 285 283 281 281 278 276 272 278 278 274 279 280 281 282 282 279 284 289 288 288 290 291 291 291 292
Wind_Speed
15 15 15 16 16 16 16 16 16 15 15 16 16 15 16 16 17 9 9 11 9 6 8 10 4 6 2 3 3 4 5 8 8 8 4 2 2 1 4 5 6 3 3 5 12
16 16 17 17 16 16 16 16 16 16 14 15 16 16 15 16 10 12 16 22 16 8 9 8 6 3 4 3 4 7 7 11 6 7 4 3 2 3 5 7 3 2 2 4 11
17 18 18 18 18 18 17 17 17 17 15 14 15 16 15 14 8 5 8 5 16 17 12 3 6 4 4 3 6 5 14 5 5 9 5 4 7 3 5 9 7 2 7 4 11
15 15 16 17 18 18 19 18 18 17 17 13 13 14 16 4 9 8 12 4 10 12 8 6 6 8 6 9 5 7 8 8 9 7 6 7 6 9 10 15 8 11 8 8 14
16 16 17 17 17 17 18 20 19 17 16 13 11 12 5 6 11 9 16 13 3 7 9 9 10 8 11 6 6 7 5 7 9 7 6 4 11 12 14 15 11 13 10 11 14
16 17 17 18 17 17 18 19 19 16 15 12 10 9 2 14 6 5 14 13 4 3 6 6 7 9 5 9 11 4 10 15 8 10 8 13 15 7 13 10 14 11 11 11 15
16 17 17 17 16 17 19 20 20 16 14 12 10 4 8 20 14 20 15 6 4 5 4 3 3 5 3 3 8 6 8 8 12 7 8 6 17 22 15 11 10 11 12 8 14
17 17 17 17 17 18 19 21 20 19 14 12 10 4 11 8 6 13 14 10 8 9 6 10 4 3 4 3 2 6 5 11 10 17 8 10 23 2 10 15 18 18 15 13 11
16 17 18 16 17 19 21 23 22 19 15 11 2 2 12 7 8 9 11 10 4 9 8 8 3 5 4 8 4 7 13 11 10 6 8 20 21 9 9 15 15 15 16 15 16
16 17 18 17 18 19 21 22 19 14 5 5 3 4 6 5 4 13 8 12 6 8 6 7 7 7 8 14 19 12 8 9 9 7 11 15 21 7 2 8 13 13 12 12 13
16 16 17 17 19 17 10 6 4 2 4 6 5 5 11 6 9 6 7 2 6 11 13 11 8 20 28 20 9 4 14 13 4 5 3 12 13 12 10 10 13 13 12 13 14
15 15 17 16 18 12 5 4 8 6 10 11 16 17 21 12 12 14 3 7 9 12 14 9 20 26 13 15 14 16 7 5 5 8 4 7 13 10 10 12 12 15 17 16 14
15 15 17 15 8 4 4 4 8 9 4 6 7 6 7 5 7 7 5 5 7 12 20 18 19 13 19 14 16 20 22 15 7 6 6 8 15 15 12 14 13 17 20 19 17
14 14 14 15 2 3 3 11 9 6 3 7 10 5 14 10 5 7 6 7 5 13 14 15 20 13 20 22 21 21 14 14 12 9 12 3 17 15 16 17 15 20 17 15 15
12 13 11 3 3 3 5 9 8 1 4 12 6 1 4 9 11 2 7 4 10 6 7 13 8 19 20 21 17 18 10 13 14 15 9 16 13 18 11 23 26 22 16 12 10
12 13 12 1 1 3 9 10 2 4 4 8 8 11 9 4 9 13 6 5 1 10 16 12 3 4 21 18 16 9 6 9 7 7 11 24 16 29 19 26 23 20 14 7 8
12 13 4 0 4 7 7 1 4 5 6 9 9 11 13 11 9 13 13 15 5 3 11 9 15 13 7 14 11 17 12 7 8 8 16 9 14 28 1 7 10 8 8 6 7
12 6 5 1 6 6 3 3 8 3 4 8 7 10 9 15 7 10 9 7 14 3 3 5 6 13 7 8 13 18 20 8 15 15 16 13 15 22 11 20 23 26 18 16 14
7 3 2 4 5 2 4 6 3 3 5 7 9 6 8 12 9 4 6 7 6 13 5 7 4 6 5 7 7 13 22 20 9 8 4 6 17 23 23 21 18 19 13 9 8
2 2 2 7 4 4 5 3 3 3 6 3 6 5 7 12 9 10 5 3 2 4 1 4 6 5 7 7 5 13 5 13 12 12 19 14 18 17 3 5 9 12 12 12 12
3 3 3 7 2 5 3 3 3 4 4 3 3 3 5 6 5 5 8 2 9 5 3 1 2 7 5 7 5 7 14 13 4 10 12 12 12 12 18 7 9 11 13 12 13
2 3 3 3 4 2 1 2 4 4 2 2 2 3 3 4 4 5 4 4 8 5 4 3 1 4 4 1 5 5 6 7 4 5 3 3 5 4 15 11 10 14 13 11 11
2 2 2 3 3 2 4 3 2 3 3 3 2 4 3 3 3 2 4 4 4 9 2 0 1 4 2 5 6 5 2 3 3 3 5 5 5 8 8 13 12 13 14 13 13
3 3 4 4 1 3 3 3 5 3 3 3 3 1 3 4 2 5 5 4 9 7 10 4 3 4 5 7 5 6 6 4 4 3 5 9 19 18 20 14 15 16 15 14 14
3 1 1 2 1 1 0 1 3 3 2 2 1 1 2 3 4 4 3 11 7 5 2 3 3 6 12 15 13 13 15 12 14 12 8 14 17 23 19 17 12 14 14 11 12
3 3 1 2 2 1 1 3 3 3 2 3 4 4 2 6 9 13 15 7 7 4 2 2 3 4 9 14 14 17 19 20 18 17 19 23 24 25 26 19 18 8 8 12 16
1 0 2 2 2 2 3 4 3 1 4 6 4 7 12 13 11 12 12 12 14 11 9 5 3 3 7 9 10 11 26 19 18 16 19 19 22 23 21 18 20 14 12 13 18
Wind_Direction
4 2 360 357 353 349 348 349 344 338 339 339 335 332 332 330 320 287 250 235 210 247 344 319 336 331 292 217 145 146 212 224 219 179 232 181 185 296 300 280 327 327 319 342 141
360 357 353 350 348 346 343 341 339 332 330 336 335 332 333 326 304 269 244 231 232 285 288 275 268 312 273 220 187 202 214 217 197 209 218 190 261 333 303 307 287 331 5 91 162
354 351 348 345 342 340 338 336 332 327 323 329 333 334 331 327 298 254 31 236 223 247 240 218 209 185 216 215 189 186 232 194 205 226 248 279 280 232 260 279 230 302 337 196 184
352 349 346 344 341 338 334 330 326 324 325 318 327 335 325 292 252 162 74 38 209 250 202 174 198 179 198 208 211 236 228 217 236 216 227 235 259 256 243 256 275 293 300 219 202
352 350 347 344 341 339 337 330 322 318 316 310 320 332 350 236 241 327 360 352 186 130 170 185 187 185 197 200 204 231 225 206 223 222 238 234 242 258 253 260 269 282 293 227 210
348 346 345 343 343 340 338 330 324 313 307 305 306 322 244 253 281 338 355 340 353 249 169 196 210 209 214 215 210 169 219 250 253 243 251 253 258 230 248 248 252 251 255 226 214
345 344 341 340 337 334 331 331 321 313 304 302 295 301 251 257 297 307 311 254 283 338 265 218 234 244 201 190 228 220 249 269 239 221 241 204 259 234 244 246 249 255 269 262 227
347 345 341 339 332 328 326 323 313 302 297 289 290 278 267 268 288 280 273 277 242 250 258 284 276 257 215 278 252 202 207 240 235 218 219 181 258 303 198 229 235 237 249 265 246
346 345 341 337 330 324 321 316 302 289 285 287 274 180 274 286 269 263 232 240 239 215 226 254 243 212 177 210 221 215 233 225 250 204 180 204 257 273 205 196 217 226 238 243 259
346 342 340 337 331 323 316 305 291 291 298 246 199 290 254 280 293 301 262 230 193 186 206 196 202 205 205 190 214 220 224 234 228 200 192 204 242 247 302 218 244 244 245 241 244
343 339 337 336 332 338 335 335 15 23 354 262 267 250 293 298 289 285 312 189 196 187 190 186 197 211 212 215 222 61 224 231 233 260 264 246 260 249 249 241 243 249 240 239 239
339 337 337 332 334 0 353 359 32 328 303 279 257 261 266 279 298 295 274 195 188 192 190 173 225 222 209 211 228 247 241 223 276 267 280 285 276 272 256 252 234 243 247 242 241
340 339 341 330 348 21 324 16 331 354 267 314 279 265 306 163 242 268 214 267 203 188 194 200 224 191 201 199 206 224 233 229 235 317 262 301 283 257 245 247 248 238 245 246 242
340 341 341 331 34 338 316 327 329 310 346 355 339 352 15 311 253 278 236 253 236 199 185 219 246 251 208 214 208 226 223 232 229 226 253 268 276 254 252 251 243 248 240 244 235
334 339 339 39 282 311 294 322 320 264 33 318 316 113 135 22 286 306 322 248 249 248 178 211 186 209 237 230 204 242 193 200 218 230 255 237 266 257 231 248 245 254 257 246 215
332 335 338 48 281 286 316 312 288 44 12 324 342 329 340 345 11 345 357 25 338 255 268 256 354 258 225 219 204 206 188 203 208 209 233 237 222 274 239 245 261 262 264 257 226
329 335 345 356 306 327 311 40 41 71 311 341 334 328 356 1 42 19 42 51 32 176 235 274 249 265 284 206 198 190 175 192 208 198 236 216 204 247 197 323 264 285 267 273 285
329 8 339 33 317 321 16 56 62 272 312 315 322 332 18 9 36 44 24 35 26 14 325 249 230 201 213 226 200 204 196 200 212 224 242 194 229 238 227 247 249 258 262 288 277
350 356 21 313 338 20 61 52 189 254 315 318 319 4 5 358 354 37 72 34 8 16 33 0 239 330 25 348 234 184 216 215 262 260 277 217 245 273 260 265 267 277 271 285 271
46 5 299 324 353 56 67 139 223 258 314 326 17 1 358 347 8 8 43 276 5 360 52 18 296 360 318 320 239 239 213 203 227 238 245 238 246 253 158 52 44 47 25 357 356
49 36 271 340 52 48 89 225 283 279 333 327 335 325 358 348 331 360 12 35 2 1 15 55 34 313 317 26 15 355 237 236 265 226 229 244 239 306 278 258 57 20 358 350 343
79 19 316 0 50 29 91 281 315 297 326 345 307 331 339 323 326 350 343 9 354 15 2 18 45 310 301 289 286 89 9 7 274 228 360 319 233 6 45 65 42 6 350 342 335
71 291 337 61 91 7 316 312 280 302 315 332 336 4 340 316 343 312 332 318 3 352 336 254 41 319 119 135 110 74 42 52 328 315 241 256 242 183 17 355 352 354 338 332 328
81 14 331 44 88 115 33 316 310 265 268 276 279 100 346 351 338 300 306 303 336 307 288 223 196 238 275 306 319 291 276 231 164 236 309 267 289 289 302 313 326 330 323 326 328
39 210 179 326 354 124 170 268 299 305 273 288 290 176 23 323 307 281 285 316 297 310 25 110 236 232 259 272 279 281 282 263 234 233 233 269 273 281 280 295 300 303 304 314 325
136 140 175 278 262 141 282 243 233 290 246 275 244 291 308 280 265 282 285 290 280 318 53 29 281 335 271 274 273 280 276 260 246 240 243 250 259 264 273 287 282 270 285 306 311
145 352 110 266 174 160 221 216 231 35 277 250 294 328 299 287 276 266 260 259 253 261 269 262 230 246 267 305 294 273 244 251 249 245 234 247 252 275 276 271 273 287 274 280 291